,,,PA_Meas_PMT16A,,PR_Meas_QMR101_102,,RH_Meas_QMH101,,SR_Meas_QMS101,,TA_Meas_QMH101,,GenWind,,GenWind,
date,time,status,PA,status,PR,status,RH,status,SR,status,TA,status,DirAvg,status,SpdAvg,
2009-07-25, 00:00:04,VALID,1001.54,VALID,0,VALID,89.1368,VALID,0,VALID,23.7988,VALID,122,VALID,0.358594,
2009-07-25, 00:01:04,VALID,1001.54,VALID,0,VALID,88.9843,VALID,0,VALID,23.7811,VALID,122,VALID,0.466016,
2009-07-25, 00:02:04,VALID,1001.53,VALID,0,VALID,89.114,VALID,0,VALID,23.7793,VALID,122,VALID,0.441406,
2009-07-25, 00:03:04,VALID,1001.47,VALID,0,VALID,88.9843,VALID,0,VALID,23.7811,VALID,122,VALID,0.455078,
2009-07-25, 00:04:04,VALID,1001.48,VALID,0,VALID,89.0758,VALID,0,VALID,23.7402,VALID,122,VALID,0.377734,
2009-07-25, 00:05:04,VALID,1001.46,VALID,0,VALID,89.114,VALID,0,VALID,23.7012,VALID,122,VALID,0.183594,
2009-07-25, 00:06:04,VALID,1001.49,VALID,0,VALID,89.6633,VALID,0,VALID,23.6835,VALID,122,VALID,0.0375,
2009-07-25, 00:07:04,VALID,1001.44,VALID,0,VALID,89.9456,VALID,0,VALID,23.664,VALID,122,VALID,0.0792969,
2009-07-25, 00:08:04,VALID,1001.44,VALID,0,VALID,90.266,VALID,0,VALID,23.625,VALID,122,VALID,0.149219,
2009-07-25, 00:09:04,VALID,1001.44,VALID,0,VALID,90.6857,VALID,0,VALID,23.5859,VALID,122,VALID,0.238672,
2009-07-25, 00:10:04,VALID,1001.44,VALID,0,VALID,90.9527,VALID,0,VALID,23.5664,VALID,122,VALID,0.071875,
2009-07-25, 00:11:04,VALID,1001.43,VALID,0,VALID,91.0595,VALID,0,VALID,23.5061,VALID,122,VALID,0,
2009-07-25, 00:12:04,VALID,1001.43,VALID,0,VALID,91.3037,VALID,0,VALID,23.4884,VALID,122,VALID,0,
2009-07-25, 00:13:04,VALID,1001.46,VALID,0,VALID,91.586,VALID,0,VALID,23.4866,VALID,122,VALID,0.0199219,
2009-07-25, 00:14:04,VALID,1001.42,VALID,0,VALID,92.2726,VALID,0,VALID,23.5061,VALID,122,VALID,0.620313,
2009-07-25, 00:15:04,VALID,1001.44,VALID,0,VALID,92.616,VALID,0,VALID,23.5841,VALID,122,VALID,0.508594,
2009-07-25, 00:16:04,VALID,1001.43,VALID,0,VALID,92.5015,VALID,0,VALID,23.6445,VALID,122,VALID,0.573828,
2009-07-25, 00:17:04,VALID,1001.43,VALID,0,VALID,92.1963,VALID,0,VALID,23.6445,VALID,122,VALID,0.65,
2009-07-25, 00:18:04,VALID,1001.43,VALID,0,VALID,91.7996,VALID,0,VALID,23.664,VALID,123,VALID,0.600391,
2009-07-25, 00:19:04,VALID,1001.4,VALID,0,VALID,91.5554,VALID,0,VALID,23.6835,VALID,123,VALID,0.726172,
2009-07-25, 00:20:04,VALID,1001.39,VALID,0,VALID,91.3266,VALID,0,VALID,23.6817,VALID,123,VALID,0.701563,
2009-07-25, 00:21:04,VALID,1001.36,VALID,0,VALID,91.0366,VALID,0,VALID,23.7012,VALID,123,VALID,0.744922,
2009-07-25, 00:22:04,VALID,1001.38,VALID,0,VALID,90.7696,VALID,0,VALID,23.7616,VALID,123,VALID,0.782422,
2009-07-25, 00:23:04,VALID,1001.36,VALID,0,VALID,90.4186,VALID,0,VALID,23.7616,VALID,123,VALID,0.817969,
2009-07-25, 00:24:04,VALID,1001.37,VALID,0,VALID,90.2355,VALID,0,VALID,23.7597,VALID,123,VALID,0.921484,
2009-07-25, 00:25:04,VALID,1001.35,VALID,0,VALID,90.0906,VALID,0,VALID,23.7793,VALID,123,VALID,1.12812,
2009-07-25, 00:26:04,VALID,1001.34,VALID,0,VALID,90.0219,VALID,0,VALID,23.7988,VALID,124,VALID,1.07578,
2009-07-25, 00:27:04,VALID,1001.33,VALID,0,VALID,90.0677,VALID,0,VALID,23.7793,VALID,124,VALID,1.01094,
2009-07-25, 00:28:04,VALID,1001.34,VALID,0,VALID,90.2355,VALID,0,VALID,23.7793,VALID,126,VALID,1.02305,
2009-07-25, 00:29:04,VALID,1001.33,VALID,0,VALID,90.3423,VALID,0,VALID,23.8006,VALID,127,VALID,0.965234,
2009-07-25, 00:30:04,VALID,1001.32,VALID,0,VALID,90.3576,VALID,0,VALID,23.7597,VALID,128,VALID,0.817187,
2009-07-25, 00:31:04,VALID,1001.32,VALID,0,VALID,90.4568,VALID,0,VALID,23.7616,VALID,127,VALID,0.840234,
2009-07-25, 00:32:04,VALID,1001.27,VALID,0,VALID,90.6017,VALID,0,VALID,23.7207,VALID,128,VALID,0.913281,
2009-07-25, 00:33:04,VALID,1001.28,VALID,0,VALID,90.762,VALID,0,VALID,23.7012,VALID,128,VALID,0.777344,
2009-07-25, 00:34:04,VALID,1001.28,VALID,0,VALID,91.0595,VALID,0,VALID,23.703,VALID,128,VALID,0.816016,
2009-07-25, 00:35:04,VALID,1001.3,VALID,0,VALID,91.2045,VALID,0,VALID,23.6622,VALID,128,VALID,0.796875,
2009-07-25, 00:36:04,VALID,1001.27,VALID,0,VALID,91.296,VALID,0,VALID,23.6835,VALID,127,VALID,0.766016,
2009-07-25, 00:37:04,VALID,1001.26,VALID,0,VALID,91.2121,VALID,0,VALID,23.6445,VALID,126,VALID,0.716797,
2009-07-25, 00:38:04,VALID,1001.26,VALID,0,VALID,91.1892,VALID,0,VALID,23.6036,VALID,112,VALID,0.766406,
2009-07-25, 00:39:04,VALID,1001.27,VALID,0,VALID,91.2579,VALID,0,VALID,23.6054,VALID,102,VALID,0.980859,
2009-07-25, 00:40:04,VALID,1001.27,VALID,0,VALID,91.4028,VALID,0,VALID,23.5841,VALID,102,VALID,0.891797,
2009-07-25, 00:41:04,VALID,1001.27,VALID,0,VALID,91.5402,VALID,0,VALID,23.5646,VALID,101,VALID,0.905078,
2009-07-25, 00:42:04,VALID,1001.24,VALID,0,VALID,91.6851,VALID,0,VALID,23.5256,VALID,101,VALID,0.7375,
2009-07-25, 00:43:04,VALID,1001.27,VALID,0,VALID,92.1048,VALID,0,VALID,23.5274,VALID,100,VALID,0.937891,
2009-07-25, 00:44:04,VALID,1001.26,VALID,0,VALID,92.0361,VALID,0,VALID,23.5061,VALID,93,VALID,0.728516,
2009-07-25, 00:45:04,VALID,1001.22,VALID,0,VALID,91.9445,VALID,0,VALID,23.4866,VALID,72,VALID,0.952344,
2009-07-25, 00:46:04,VALID,1001.24,VALID,0,VALID,91.9674,VALID,0,VALID,23.4475,VALID,72,VALID,0.994141,
2009-07-25, 00:47:04,VALID,1001.24,VALID,0,VALID,91.9064,VALID,0,VALID,23.428,VALID,69,VALID,0.953906,
2009-07-25, 00:48:04,VALID,1001.23,VALID,0,VALID,91.8911,VALID,0,VALID,23.4085,VALID,68,VALID,0.846484,
2009-07-25, 00:49:04,VALID,1001.24,VALID,0,VALID,91.9217,VALID,0,VALID,23.4085,VALID,68,VALID,0.875391,
2009-07-25, 00:50:04,VALID,1001.21,VALID,0,VALID,91.6241,VALID,0,VALID,23.4085,VALID,69,VALID,0.9875,
2009-07-25, 00:51:04,VALID,1001.21,VALID,0,VALID,91.4257,VALID,0,VALID,23.428,VALID,72,VALID,0.853516,
2009-07-25, 00:52:04,VALID,1001.19,VALID,0,VALID,91.1587,VALID,0,VALID,23.4688,VALID,79,VALID,0.756641,
2009-07-25, 00:53:04,VALID,1001.17,VALID,0,VALID,90.7772,VALID,0,VALID,23.4671,VALID,79,VALID,0.676562,
2009-07-25, 00:54:04,VALID,1001.17,VALID,0,VALID,90.7696,VALID,0,VALID,23.4671,VALID,79,VALID,0.708203,
2009-07-25, 00:55:04,VALID,1001.22,VALID,0,VALID,90.4339,VALID,0,VALID,23.4866,VALID,79,VALID,0.614453,
2009-07-25, 00:56:04,VALID,1001.22,VALID,0,VALID,90.1974,VALID,0,VALID,23.4866,VALID,79,VALID,0.721484,
2009-07-25, 00:57:04,VALID,1001.2,VALID,0,VALID,90.0143,VALID,0,VALID,23.5061,VALID,79,VALID,0.678906,
2009-07-25, 00:58:04,VALID,1001.22,VALID,0,VALID,90.06,VALID,0,VALID,23.5061,VALID,79,VALID,0.520703,
2009-07-25, 00:59:04,VALID,1001.22,VALID,0,VALID,89.6251,VALID,0,VALID,23.5451,VALID,103,VALID,0.730859,
2009-07-25, 01:00:04,VALID,1001.22,VALID,0,VALID,89.4726,VALID,0,VALID,23.5859,VALID,95,VALID,0.795703,
2009-07-25, 01:01:04,VALID,1001.2,VALID,0,VALID,89.0834,VALID,0,VALID,23.6232,VALID,104,VALID,0.783984,
2009-07-25, 01:02:04,VALID,1001.19,VALID,0,VALID,88.763,VALID,0,VALID,23.6622,VALID,110,VALID,0.730469,
2009-07-25, 01:03:04,VALID,1001.22,VALID,0,VALID,88.5417,VALID,0,VALID,23.7012,VALID,110,VALID,0.842188,
2009-07-25, 01:04:04,VALID,1001.22,VALID,0,VALID,88.4044,VALID,0,VALID,23.742,VALID,113,VALID,0.546875,
2009-07-25, 01:05:04,VALID,1001.23,VALID,0,VALID,88.3586,VALID,0,VALID,23.742,VALID,113,VALID,0.551562,
2009-07-25, 01:06:04,VALID,1001.24,VALID,0,VALID,88.5494,VALID,0,VALID,23.7402,VALID,113,VALID,0.337891,
2009-07-25, 01:07:04,VALID,1001.22,VALID,0,VALID,88.4654,VALID,0,VALID,23.7402,VALID,112,VALID,0.355859,
2009-07-25, 01:08:04,VALID,1001.24,VALID,0,VALID,88.4349,VALID,0,VALID,23.7207,VALID,113,VALID,0.401563,
2009-07-25, 01:09:04,VALID,1001.24,VALID,0,VALID,88.5799,VALID,0,VALID,23.7207,VALID,113,VALID,0.455469,
2009-07-25, 01:10:04,VALID,1001.24,VALID,0,VALID,88.6409,VALID,0,VALID,23.742,VALID,113,VALID,0.323047,
2009-07-25, 01:11:04,VALID,1001.24,VALID,0,VALID,88.7859,VALID,0,VALID,23.7225,VALID,113,VALID,0.192969,
2009-07-25, 01:12:04,VALID,1001.25,VALID,0,VALID,88.8317,VALID,0,VALID,23.6817,VALID,113,VALID,0.0734375,
2009-07-25, 01:13:04,VALID,1001.27,VALID,0,VALID,88.8851,VALID,0,VALID,23.6835,VALID,113,VALID,0,
2009-07-25, 01:14:04,VALID,1001.31,VALID,0,VALID,88.9461,VALID,0,VALID,23.6427,VALID,113,VALID,0,
2009-07-25, 01:15:04,VALID,1001.3,VALID,0,VALID,88.9003,VALID,0,VALID,23.6036,VALID,113,VALID,0,
2009-07-25, 01:16:04,VALID,1001.32,VALID,0,VALID,89.1063,VALID,0,VALID,23.5646,VALID,113,VALID,0,
2009-07-25, 01:17:04,VALID,1001.35,VALID,0,VALID,89.0758,VALID,0,VALID,23.5256,VALID,113,VALID,0,
2009-07-25, 01:18:04,VALID,1001.32,VALID,0,VALID,89.3047,VALID,0,VALID,23.4866,VALID,113,VALID,0,
2009-07-25, 01:19:04,VALID,1001.36,VALID,0,VALID,89.5031,VALID,0,VALID,23.4475,VALID,113,VALID,0,
2009-07-25, 01:20:04,VALID,1001.38,VALID,0,VALID,89.6557,VALID,0,VALID,23.428,VALID,113,VALID,0,
2009-07-25, 01:21:04,VALID,1001.41,VALID,0,VALID,89.8769,VALID,0,VALID,23.4085,VALID,113,VALID,0,
2009-07-25, 01:22:04,VALID,1001.43,VALID,0,VALID,89.9761,VALID,0,VALID,23.3695,VALID,113,VALID,0.220703,
2009-07-25, 01:23:04,VALID,1001.4,VALID,0,VALID,89.8235,VALID,0.112286,VALID,23.389,VALID,112,VALID,0.378906,
2009-07-25, 01:24:04,VALID,1001.43,VALID,0,VALID,89.793,VALID,0,VALID,23.3305,VALID,110,VALID,0.425,
2009-07-25, 01:25:04,VALID,1001.43,VALID,0,VALID,89.9456,VALID,0,VALID,23.3305,VALID,65,VALID,0.507813,
2009-07-25, 01:26:04,VALID,1001.4,VALID,0,VALID,89.648,VALID,0,VALID,23.2915,VALID,54,VALID,0.5125,
2009-07-25, 01:27:04,VALID,1001.43,VALID,0,VALID,89.9456,VALID,0,VALID,23.2524,VALID,25,VALID,0.815625,
2009-07-25, 01:28:04,VALID,1001.41,VALID,0,VALID,90.4415,VALID,0,VALID,23.2329,VALID,23,VALID,0.821094,
2009-07-25, 01:29:04,VALID,1001.43,VALID,0,VALID,90.9756,VALID,0.112286,VALID,23.2134,VALID,23,VALID,0.769922,
2009-07-25, 01:30:04,VALID,1001.45,VALID,0,VALID,91.1206,VALID,0,VALID,23.2134,VALID,23,VALID,0.78125,
2009-07-25, 01:31:04,VALID,1001.41,VALID,0,VALID,90.8001,VALID,0,VALID,23.2134,VALID,23,VALID,0.863281,
2009-07-25, 01:32:04,VALID,1001.43,VALID,0,VALID,90.617,VALID,0,VALID,23.2134,VALID,23,VALID,0.782812,
2009-07-25, 01:33:04,VALID,1001.4,VALID,0,VALID,90.4568,VALID,0,VALID,23.2329,VALID,23,VALID,0.807813,
2009-07-25, 01:34:04,VALID,1001.42,VALID,0,VALID,90.4339,VALID,0,VALID,23.2719,VALID,23,VALID,0.916406,
2009-07-25, 01:35:04,VALID,1001.42,VALID,0,VALID,90.3576,VALID,0,VALID,23.3305,VALID,23,VALID,0.980859,
2009-07-25, 01:36:04,VALID,1001.45,VALID,0,VALID,90.0295,VALID,0,VALID,23.35,VALID,32,VALID,0.942969,
2009-07-25, 01:37:04,VALID,1001.42,VALID,0,VALID,90.0219,VALID,0,VALID,23.4085,VALID,38,VALID,0.777734,
2009-07-25, 01:38:04,VALID,1001.39,VALID,0,VALID,89.6786,VALID,0.112286,VALID,23.4671,VALID,38,VALID,0.862109,
2009-07-25, 01:39:04,VALID,1001.39,VALID,0,VALID,89.2666,VALID,0,VALID,23.5079,VALID,38,VALID,0.878125,
2009-07-25, 01:40:04,VALID,1001.38,VALID,0,VALID,89.0758,VALID,0,VALID,23.5451,VALID,47,VALID,0.8375,
2009-07-25, 01:41:04,VALID,1001.33,VALID,0,VALID,88.8851,VALID,0,VALID,23.5841,VALID,49,VALID,0.883984,
2009-07-25, 01:42:04,VALID,1001.33,VALID,0,VALID,88.9843,VALID,0,VALID,23.6232,VALID,49,VALID,0.911719,
2009-07-25, 01:43:04,VALID,1001.34,VALID,0,VALID,89.1445,VALID,0,VALID,23.6232,VALID,50,VALID,1.03945,
2009-07-25, 01:44:04,VALID,1001.34,VALID,0,VALID,89.4344,VALID,0,VALID,23.6445,VALID,50,VALID,1.14375,
2009-07-25, 01:45:04,VALID,1001.34,VALID,0,VALID,89.9151,VALID,0,VALID,23.5859,VALID,50,VALID,1.27148,
2009-07-25, 01:46:04,VALID,1001.31,VALID,0,VALID,90.0906,VALID,0,VALID,23.5079,VALID,50,VALID,1.20117,
2009-07-25, 01:47:04,VALID,1001.32,VALID,0,VALID,90.411,VALID,0,VALID,23.389,VALID,55,VALID,1.03594,
2009-07-25, 01:48:04,VALID,1001.33,VALID,0,VALID,90.7543,VALID,0,VALID,23.3323,VALID,57,VALID,0.971484,
2009-07-25, 01:49:04,VALID,1001.31,VALID,0,VALID,91.3266,VALID,0,VALID,23.2719,VALID,63,VALID,0.963281,
2009-07-25, 01:50:04,VALID,1001.3,VALID,0,VALID,91.4334,VALID,0,VALID,23.2347,VALID,64,VALID,0.940234,
2009-07-25, 01:51:04,VALID,1001.32,VALID,0,VALID,91.5631,VALID,0,VALID,23.1744,VALID,68,VALID,0.960547,
2009-07-25, 01:52:04,VALID,1001.29,VALID,0,VALID,91.7538,VALID,0,VALID,23.1762,VALID,68,VALID,0.911328,
2009-07-25, 01:53:04,VALID,1001.31,VALID,0,VALID,91.708,VALID,0,VALID,23.1159,VALID,69,VALID,0.773828,
2009-07-25, 01:54:04,VALID,1001.27,VALID,0,VALID,91.7614,VALID,0,VALID,23.0769,VALID,69,VALID,0.653906,
2009-07-25, 01:55:04,VALID,1001.26,VALID,0,VALID,91.7843,VALID,0,VALID,23.0786,VALID,69,VALID,0.65,
2009-07-25, 01:56:04,VALID,1001.26,VALID,0,VALID,91.7157,VALID,0,VALID,23.0396,VALID,69,VALID,0.529688,
2009-07-25, 01:57:04,VALID,1001.24,VALID,0,VALID,91.7462,VALID,0,VALID,23.0006,VALID,69,VALID,0.451562,
2009-07-25, 01:58:04,VALID,1001.22,VALID,0,VALID,91.708,VALID,0,VALID,22.9598,VALID,69,VALID,0.500781,
2009-07-25, 01:59:04,VALID,1001.22,VALID,0,VALID,91.9217,VALID,0,VALID,22.9403,VALID,69,VALID,0.573828,
2009-07-25, 02:00:04,VALID,1001.22,VALID,0,VALID,92.1124,VALID,0,VALID,22.9208,VALID,69,VALID,0.522266,
2009-07-25, 02:01:04,VALID,1001.2,VALID,0,VALID,92.2803,VALID,0,VALID,22.9615,VALID,69,VALID,0.55,
2009-07-25, 02:02:04,VALID,1001.18,VALID,0,VALID,92.1048,VALID,0,VALID,22.9013,VALID,69,VALID,0.530078,
2009-07-25, 02:03:04,VALID,1001.2,VALID,0,VALID,92.1506,VALID,0,VALID,22.8623,VALID,69,VALID,0.420312,
2009-07-25, 02:04:04,VALID,1001.19,VALID,0,VALID,92.1658,VALID,0,VALID,22.8427,VALID,69,VALID,0.472266,
2009-07-25, 02:05:04,VALID,1001.17,VALID,0,VALID,92.2497,VALID,0,VALID,22.8037,VALID,69,VALID,0.504687,
2009-07-25, 02:06:04,VALID,1001.18,VALID,0,VALID,92.3489,VALID,0,VALID,22.7842,VALID,69,VALID,0.462891,
2009-07-25, 02:07:04,VALID,1001.16,VALID,0,VALID,92.3489,VALID,0,VALID,22.7452,VALID,69,VALID,0.489453,
2009-07-25, 02:08:04,VALID,1001.13,VALID,0,VALID,92.532,VALID,0,VALID,22.7452,VALID,69,VALID,0.525391,
2009-07-25, 02:09:04,VALID,1001.13,VALID,0,VALID,92.5626,VALID,0,VALID,22.7452,VALID,69,VALID,0.341797,
2009-07-25, 02:10:04,VALID,1001.11,VALID,0,VALID,92.6083,VALID,0,VALID,22.7664,VALID,69,VALID,0.310156,
2009-07-25, 02:11:04,VALID,1001.13,VALID,0,VALID,92.6007,VALID,0,VALID,22.7647,VALID,69,VALID,0.295312,
2009-07-25, 02:12:04,VALID,1001.07,VALID,0,VALID,92.6388,VALID,0,VALID,22.786,VALID,69,VALID,0.354688,
2009-07-25, 02:13:04,VALID,1001.07,VALID,0,VALID,92.5397,VALID,0,VALID,22.8055,VALID,69,VALID,0.00546875,
2009-07-25, 02:14:04,VALID,1001.06,VALID,0,VALID,92.4939,VALID,0,VALID,22.7842,VALID,69,VALID,0.138281,
2009-07-25, 02:15:04,VALID,1001.03,VALID,0,VALID,92.41,VALID,0,VALID,22.786,VALID,69,VALID,0.0945313,
2009-07-25, 02:16:04,VALID,1001.01,VALID,0,VALID,92.4939,VALID,0,VALID,22.8055,VALID,69,VALID,0.255859,
2009-07-25, 02:17:04,VALID,1000.99,VALID,0,VALID,92.4863,VALID,0,VALID,22.7842,VALID,74,VALID,0.208594,
2009-07-25, 02:18:04,VALID,1000.97,VALID,0,VALID,92.471,VALID,0,VALID,22.8055,VALID,74,VALID,0.303906,
2009-07-25, 02:19:04,VALID,1000.95,VALID,0,VALID,92.4176,VALID,0,VALID,22.7647,VALID,74,VALID,0.324219,
2009-07-25, 02:20:04,VALID,1000.9,VALID,0,VALID,92.4481,VALID,0,VALID,22.8055,VALID,74,VALID,0.489844,
2009-07-25, 02:21:04,VALID,1000.85,VALID,0,VALID,92.4252,VALID,0,VALID,22.8055,VALID,74,VALID,0.377344,
2009-07-25, 02:22:04,VALID,1000.87,VALID,0,VALID,92.1887,VALID,0,VALID,22.7842,VALID,76,VALID,0.453125,
2009-07-25, 02:23:04,VALID,1000.81,VALID,0,VALID,92.1506,VALID,0,VALID,22.7842,VALID,78,VALID,0.246094,
2009-07-25, 02:24:04,VALID,1000.84,VALID,0,VALID,91.9674,VALID,0,VALID,22.825,VALID,78,VALID,0.369922,
2009-07-25, 02:25:04,VALID,1000.81,VALID,0,VALID,91.6851,VALID,0,VALID,22.825,VALID,78,VALID,0.371484,
2009-07-25, 02:26:04,VALID,1000.77,VALID,0,VALID,91.5936,VALID,0,VALID,22.8055,VALID,79,VALID,0.408984,
2009-07-25, 02:27:04,VALID,1000.79,VALID,0,VALID,91.441,VALID,0,VALID,22.8445,VALID,79,VALID,0.135547,
2009-07-25, 02:28:04,VALID,1000.75,VALID,0,VALID,91.3266,VALID,0,VALID,22.825,VALID,79,VALID,0,
2009-07-25, 02:29:04,VALID,1000.79,VALID,0,VALID,91.2808,VALID,0,VALID,22.825,VALID,79,VALID,0,
2009-07-25, 02:30:04,VALID,1000.77,VALID,0,VALID,91.4868,VALID,0,VALID,22.8037,VALID,79,VALID,0.242188,
2009-07-25, 02:31:04,VALID,1000.75,VALID,0,VALID,91.5554,VALID,0,VALID,22.8037,VALID,79,VALID,0.553125,
2009-07-25, 02:32:04,VALID,1000.75,VALID,0,VALID,91.502,VALID,0,VALID,22.8445,VALID,79,VALID,0.913281,
2009-07-25, 02:33:04,VALID,1000.71,VALID,0,VALID,91.029,VALID,0,VALID,22.8427,VALID,82,VALID,1.24922,
2009-07-25, 02:34:04,VALID,1000.73,VALID,0,VALID,90.9527,VALID,0,VALID,22.8818,VALID,99,VALID,2.02305,
2009-07-25, 02:35:04,VALID,1000.69,VALID,0,VALID,90.678,VALID,0,VALID,22.9208,VALID,92,VALID,1.6543,
2009-07-25, 02:36:04,VALID,1000.66,VALID,0,VALID,90.6475,VALID,0,VALID,22.9403,VALID,101,VALID,1.71133,
2009-07-25, 02:37:04,VALID,1000.66,VALID,0,VALID,90.4263,VALID,0,VALID,23.0201,VALID,98,VALID,2.08398,
2009-07-25, 02:38:04,VALID,1000.64,VALID,0,VALID,89.7854,VALID,0,VALID,23.1354,VALID,109,VALID,1.63789,
2009-07-25, 02:39:04,VALID,1000.63,VALID,0,VALID,89.4954,VALID,0,VALID,23.1939,VALID,106,VALID,1.21484,
2009-07-25, 02:40:04,VALID,1000.64,VALID,0,VALID,89.3734,VALID,0,VALID,23.2134,VALID,105,VALID,1.4125,
2009-07-25, 02:41:04,VALID,1000.63,VALID,0,VALID,89.2894,VALID,0,VALID,23.2134,VALID,119,VALID,1.19687,
2009-07-25, 02:42:04,VALID,1000.6,VALID,0,VALID,89.442,VALID,0,VALID,23.2737,VALID,127,VALID,1.49141,
2009-07-25, 02:43:04,VALID,1000.57,VALID,0,VALID,89.1521,VALID,0,VALID,23.35,VALID,130,VALID,1.30156,
2009-07-25, 02:44:04,VALID,1000.56,VALID,0,VALID,88.7859,VALID,0,VALID,23.4493,VALID,127,VALID,1.39141,
2009-07-25, 02:45:04,VALID,1000.57,VALID,0,VALID,88.3663,VALID,0,VALID,23.4866,VALID,120,VALID,1.38203,
2009-07-25, 02:46:04,VALID,1000.55,VALID,0,VALID,88.1221,VALID,0,VALID,23.5664,VALID,116,VALID,1.16172,
2009-07-25, 02:47:04,VALID,1000.54,VALID,0,VALID,87.9695,VALID,0,VALID,23.5646,VALID,122,VALID,1.21367,
2009-07-25, 02:48:04,VALID,1000.52,VALID,0,VALID,87.8322,VALID,0,VALID,23.5646,VALID,112,VALID,1.25937,
2009-07-25, 02:49:04,VALID,1000.51,VALID,0,VALID,87.9085,VALID,0,VALID,23.6054,VALID,116,VALID,1.15508,
2009-07-25, 02:50:04,VALID,1000.53,VALID,0,VALID,87.8246,VALID,0,VALID,23.6054,VALID,104,VALID,1.3332,
2009-07-25, 02:51:04,VALID,1000.5,VALID,0,VALID,87.7101,VALID,0,VALID,23.6036,VALID,101,VALID,1.41562,
2009-07-25, 02:52:04,VALID,1000.49,VALID,0,VALID,87.5346,VALID,0,VALID,23.5841,VALID,90,VALID,1.68711,
2009-07-25, 02:53:04,VALID,1000.46,VALID,0,VALID,87.4126,VALID,0,VALID,23.6054,VALID,88,VALID,1.73633,
2009-07-25, 02:54:04,VALID,1000.47,VALID,0,VALID,87.0997,VALID,0,VALID,23.5451,VALID,82,VALID,1.81328,
2009-07-25, 02:55:04,VALID,1000.47,VALID,0,VALID,87.1303,VALID,0,VALID,23.4866,VALID,76,VALID,1.64375,
2009-07-25, 02:56:04,VALID,1000.47,VALID,0,VALID,87.527,VALID,0,VALID,23.4475,VALID,69,VALID,1.5918,
2009-07-25, 02:57:04,VALID,1000.5,VALID,0,VALID,87.5041,VALID,0,VALID,23.3695,VALID,74,VALID,1.45352,
2009-07-25, 02:58:04,VALID,1000.49,VALID,0,VALID,87.115,VALID,0,VALID,23.3305,VALID,79,VALID,1.36133,
2009-07-25, 02:59:04,VALID,1000.49,VALID,0,VALID,87.4889,VALID,0,VALID,23.3518,VALID,66,VALID,1.12266,
2009-07-25, 03:00:04,VALID,1000.5,VALID,0,VALID,87.3363,VALID,0,VALID,23.3305,VALID,65,VALID,0.833203,
2009-07-25, 03:01:04,VALID,1000.5,VALID,0,VALID,87.2142,VALID,0,VALID,23.311,VALID,65,VALID,0.788672,
2009-07-25, 03:02:04,VALID,1000.51,VALID,0,VALID,87.6033,VALID,0,VALID,23.3323,VALID,64,VALID,0.717188,
2009-07-25, 03:03:04,VALID,1000.48,VALID,0,VALID,88.0077,VALID,0,VALID,23.3305,VALID,63,VALID,0.608984,
2009-07-25, 03:04:04,VALID,1000.47,VALID,0,VALID,87.9924,VALID,0,VALID,23.3127,VALID,64,VALID,0.488672,
2009-07-25, 03:05:04,VALID,1000.51,VALID,0,VALID,88.0916,VALID,0,VALID,23.2524,VALID,75,VALID,0.555078,
2009-07-25, 03:06:04,VALID,1000.47,VALID,0,VALID,88.1832,VALID,0,VALID,23.2329,VALID,93,VALID,0.466016,
2009-07-25, 03:07:04,VALID,1000.48,VALID,0,VALID,88.2442,VALID,0,VALID,23.2134,VALID,93,VALID,0.552344,
2009-07-25, 03:08:04,VALID,1000.46,VALID,0,VALID,88.2518,VALID,0,VALID,23.1939,VALID,93,VALID,0.367578,
2009-07-25, 03:09:04,VALID,1000.44,VALID,0,VALID,88.4273,VALID,0,VALID,23.2347,VALID,107,VALID,0.525391,
2009-07-25, 03:10:04,VALID,1000.47,VALID,0,VALID,88.4426,VALID,0,VALID,23.2152,VALID,109,VALID,0.194531,
2009-07-25, 03:11:04,VALID,1000.48,VALID,0,VALID,88.5417,VALID,0,VALID,23.1744,VALID,103,VALID,0.443359,
2009-07-25, 03:12:04,VALID,1000.45,VALID,0,VALID,88.7325,VALID,0,VALID,23.1939,VALID,79,VALID,0.407813,
2009-07-25, 03:13:04,VALID,1000.47,VALID,0,VALID,88.7401,VALID,0,VALID,23.1744,VALID,67,VALID,0.477734,
2009-07-25, 03:14:04,VALID,1000.5,VALID,0,VALID,88.7859,VALID,0,VALID,23.1762,VALID,62,VALID,0.561719,
2009-07-25, 03:15:04,VALID,1000.47,VALID,0,VALID,88.7096,VALID,0,VALID,23.1566,VALID,38,VALID,0.785547,
2009-07-25, 03:16:04,VALID,1000.51,VALID,0,VALID,88.969,VALID,0,VALID,23.1371,VALID,35,VALID,0.53125,
2009-07-25, 03:17:04,VALID,1000.51,VALID,0,VALID,88.9385,VALID,0,VALID,23.1176,VALID,35,VALID,0.586328,
2009-07-25, 03:18:04,VALID,1000.48,VALID,0,VALID,89.2971,VALID,0,VALID,23.0964,VALID,35,VALID,0.510156,
2009-07-25, 03:19:04,VALID,1000.47,VALID,0,VALID,89.0377,VALID,0,VALID,23.1176,VALID,35,VALID,0.404687,
2009-07-25, 03:20:04,VALID,1000.44,VALID,0,VALID,89.1216,VALID,0,VALID,23.1176,VALID,35,VALID,0.353516,
2009-07-25, 03:21:04,VALID,1000.44,VALID,0,VALID,89.1292,VALID,0,VALID,23.0981,VALID,35,VALID,0.369141,
2009-07-25, 03:22:04,VALID,1000.45,VALID,0,VALID,89.3963,VALID,0,VALID,23.0573,VALID,35,VALID,0.380469,
2009-07-25, 03:23:04,VALID,1000.43,VALID,0,VALID,89.5794,VALID,0,VALID,23.0786,VALID,35,VALID,0.335547,
2009-07-25, 03:24:04,VALID,1000.45,VALID,0,VALID,89.3047,VALID,0,VALID,23.0786,VALID,35,VALID,0.401953,
2009-07-25, 03:25:04,VALID,1000.41,VALID,0,VALID,89.6175,VALID,0,VALID,23.0573,VALID,35,VALID,0.186328,
2009-07-25, 03:26:04,VALID,1000.45,VALID,0,VALID,89.4115,VALID,0,VALID,23.0378,VALID,35,VALID,0.0328125,
2009-07-25, 03:27:04,VALID,1000.46,VALID,0,VALID,89.9685,VALID,0,VALID,23.0396,VALID,35,VALID,0.000390625,
2009-07-25, 03:28:04,VALID,1000.42,VALID,0,VALID,90.1516,VALID,0,VALID,23.0183,VALID,35,VALID,0.166406,
2009-07-25, 03:29:04,VALID,1000.41,VALID,0,VALID,90.0066,VALID,0,VALID,23.0201,VALID,35,VALID,0.219531,
2009-07-25, 03:30:04,VALID,1000.39,VALID,0,VALID,90.2431,VALID,0,VALID,23.0201,VALID,35,VALID,0.409766,
2009-07-25, 03:31:04,VALID,1000.34,VALID,0,VALID,90.2203,VALID,0,VALID,23.0183,VALID,35,VALID,0.390234,
2009-07-25, 03:32:04,VALID,1000.33,VALID,0,VALID,89.8388,VALID,0,VALID,23.0591,VALID,36,VALID,0.303906,
2009-07-25, 03:33:04,VALID,1000.33,VALID,0,VALID,89.6175,VALID,0,VALID,23.0591,VALID,150,VALID,0.685156,
2009-07-25, 03:34:04,VALID,1000.35,VALID,0,VALID,89.4344,VALID,0,VALID,23.0786,VALID,146,VALID,0.467578,
2009-07-25, 03:35:04,VALID,1000.33,VALID,0,VALID,89.2818,VALID,0,VALID,23.0378,VALID,146,VALID,0.308594,
2009-07-25, 03:36:04,VALID,1000.34,VALID,0,VALID,89.2894,VALID,0,VALID,23.0396,VALID,146,VALID,0.453125,
2009-07-25, 03:37:04,VALID,1000.32,VALID,0,VALID,89.32,VALID,0,VALID,23.0591,VALID,121,VALID,0.514063,
2009-07-25, 03:38:04,VALID,1000.33,VALID,0,VALID,89.1979,VALID,0,VALID,23.0591,VALID,138,VALID,0.432031,
2009-07-25, 03:39:04,VALID,1000.3,VALID,0,VALID,89.1292,VALID,0,VALID,23.0183,VALID,138,VALID,0.242969,
2009-07-25, 03:40:04,VALID,1000.31,VALID,0,VALID,89.2971,VALID,0,VALID,22.9988,VALID,126,VALID,0.687109,
2009-07-25, 03:41:04,VALID,1000.3,VALID,0,VALID,89.2437,VALID,0,VALID,23.0006,VALID,128,VALID,0.386328,
2009-07-25, 03:42:04,VALID,1000.31,VALID,0,VALID,89.1674,VALID,0,VALID,22.9793,VALID,114,VALID,0.652734,
2009-07-25, 03:43:04,VALID,1000.34,VALID,0,VALID,89.0911,VALID,0,VALID,22.9598,VALID,115,VALID,0.813281,
2009-07-25, 03:44:04,VALID,1000.37,VALID,0,VALID,89.0682,VALID,0,VALID,22.9615,VALID,114,VALID,0.335547,
2009-07-25, 03:45:04,VALID,1000.38,VALID,0,VALID,89.2742,VALID,0,VALID,22.9615,VALID,78,VALID,0.496094,
2009-07-25, 03:46:04,VALID,1000.43,VALID,0,VALID,89.4726,VALID,0,VALID,22.942,VALID,40,VALID,0.587891,